Location: Winthrop
(48.4780°N, 120.1850°W)
Time: 01:11:05
(UTC-07:00)

Transit 2A - Pass Details

Date: 15 June 2024
Orbit: 591 x 960 km, 66.7° (Epoch: 23 July)

Event Time Altitude Azimuth Distance (km) Brightness Sun altitude
Rises 22:35:21 0° 315° (NW) 3,335 11.2 -11.1°
Reaches altitude 10° 22:39:12 10° 342° (NNW) 2,488 10.0 -11.4°
Maximum altitude 22:41:57 13° 11° (N) 2,305 9.2 -11.7°
Drops below altitude 10° 22:44:47 10° 39° (NE) 2,591 9.0 -11.9°
Sets 22:48:57 0° 65° (ENE) 3,592 9.4 -12.3°
